Date String (YYYY-MM-DD hh:mm:ss) UTC,Instrument flags,absolute air pressure of the measurement (hPa),sample flow rate (lpm),inlet stack bypass flow (lpm),air temperature of the measurement (°C),ambient temperature measured by the external sensor (°C),aerosol sample conditioner tube jacket temperature (°C),OPC LED temperature (°C),internal box temperature (°C),relative humidity of the measurement (%),span deviation,mass concentration of particles derived from Lorenz-Mie calculation of OPC scattering (μg/m³),mass concentration of particles derived from Lorenz-Mie calculation of OPC scattering (μg/m³),mass concentration of particles derived from Lorenz-Mie calculation of OPC scattering (μg/m³)
DateTimeUTC,F1_M11,P_M11,Q1_M11,Q2_M11,T1_M11,T2_M11,T3_M11,T4_M11,T5_M11,U1_M11,ZSPAN_M11,X0_M11,X2_M11,X1_M11
2024-05-08 15:00:00,SystemResetWarning,0819.2,4.99,000.00,020.5,020.0,000.0,028.6,022.2,009.4,0000.0,0001.89,0001.02,0000.66
2024-05-08 15:01:00,SystemResetWarning,0819.3,5.00,000.00,020.5,020.0,000.0,028.6,022.2,009.3,0000.0,0001.92,0001.00,0000.65
2024-05-08 15:02:00,SystemResetWarning,0819.3,5.02,000.00,020.6,020.0,000.0,028.6,022.2,009.4,0000.0,0002.00,0001.03,0000.65
2024-05-08 15:03:00,SystemResetWarning,0819.3,5.01,000.00,020.6,020.0,000.0,028.6,022.2,009.1,0000.0,0002.20,0001.04,0000.65
2024-05-08 15:04:00,SystemResetWarning,0819.3,5.00,000.00,020.6,020.0,000.0,028.6,022.1,009.5,0000.0,0002.22,0001.07,0000.66
2024-05-08 15:05:00,SystemResetWarning,0819.3,4.99,000.00,020.6,020.0,000.0,028.6,022.1,009.7,0000.0,0002.37,0001.11,0000.66
2024-05-08 15:06:00,SystemResetWarning,0819.4,4.99,000.00,020.6,020.0,000.0,028.6,022.1,009.6,0000.0,0002.44,0001.12,0000.67
2024-05-08 15:07:00,SystemResetWarning,0819.4,5.00,000.00,020.6,020.0,000.0,028.7,022.1,009.6,0000.0,0002.79,0001.13,0000.67
2024-05-08 15:08:00,SystemResetWarning,0819.4,5.01,000.00,020.6,020.0,000.0,028.7,022.1,009.3,0000.0,0002.72,0001.11,0000.68
2024-05-08 15:09:00,SystemResetWarning,0819.4,5.00,000.00,020.6,020.0,000.0,028.7,022.2,009.6,0000.0,0002.70,0001.13,0000.69
2024-05-08 15:10:00,SystemResetWarning,0819.4,5.00,000.00,020.6,020.1,000.0,028.7,022.2,009.6,0000.0,0002.65,0001.12,0000.69
2024-05-08 15:11:00,SystemResetWarning,0819.4,5.00,000.00,020.6,020.1,000.0,028.7,022.3,009.3,0000.0,0002.72,0001.14,0000.69
2024-05-08 15:12:00,SystemResetWarning,0819.4,5.00,000.00,020.6,020.1,000.0,028.7,022.3,009.6,0000.0,0002.55,0001.09,0000.68
2024-05-08 15:13:00,SystemResetWarning,0819.5,5.00,000.00,020.6,020.1,000.0,028.7,022.2,009.3,0000.0,0002.56,0001.08,0000.68
2024-05-08 15:14:00,SystemResetWarning,0819.4,4.99,000.00,020.7,020.1,000.0,028.7,022.2,009.7,0000.0,0002.55,0001.13,0000.69
2024-05-08 15:15:00,SystemResetWarning,0819.4,4.99,000.00,020.7,020.1,000.0,028.7,022.3,009.2,0000.0,0002.64,0001.21,0000.69
2024-05-08 15:16:00,SystemResetWarning,0819.3,5.00,000.00,020.7,020.1,000.0,028.7,022.3,009.1,0000.0,0002.67,0001.25,0000.70
2024-05-08 15:17:00,SystemResetWarning,0819.3,5.01,000.00,020.7,020.2,000.0,028.7,022.3,009.2,0000.0,0002.61,0001.24,0000.69
2024-05-08 15:18:00,SystemResetWarning,0819.3,5.01,000.00,020.7,020.2,000.0,028.8,022.4,009.1,0000.0,0002.75,0001.22,0000.69
2024-05-08 15:19:00,SystemResetWarning,0819.2,5.00,000.00,020.7,020.2,000.0,028.8,022.4,009.2,0000.0,0003.14,0001.19,0000.67
2024-05-08 15:20:00,SystemResetWarning,0819.3,4.99,000.00,020.7,020.2,000.0,028.8,022.4,009.7,0000.0,0003.12,0001.17,0000.67
2024-05-08 15:21:00,SystemResetWarning,0819.4,5.00,000.00,020.7,020.2,000.0,028.8,022.4,009.5,0000.0,0003.27,0001.21,0000.67
2024-05-08 15:22:00,SystemResetWarning,0819.3,4.99,000.00,020.8,020.2,000.0,028.8,022.4,009.3,0000.0,0003.37,0001.26,0000.68
2024-05-08 15:23:00,SystemResetWarning,0819.4,5.01,000.00,020.8,020.2,000.0,028.8,022.4,009.2,0000.0,0003.44,0001.30,0000.69
2024-05-08 15:24:00,SystemResetWarning,0819.5,5.00,000.00,020.8,020.2,000.0,028.8,022.4,009.4,0000.0,0003.45,0001.32,0000.70
2024-05-08 15:25:00,SystemResetWarning,0819.5,5.00,000.00,020.8,020.2,000.0,028.8,022.4,009.4,0000.0,0003.69,0001.39,0000.70
2024-05-08 15:26:00,SystemResetWarning,0819.5,5.01,000.00,020.8,020.2,000.0,028.8,022.4,009.6,0000.0,0003.49,0001.30,0000.70
2024-05-08 15:27:00,SystemResetWarning,0819.5,5.01,000.00,020.8,020.2,000.0,028.8,022.4,009.4,0000.0,0003.37,0001.25,0000.70
2024-05-08 15:28:00,SystemResetWarning,0819.5,5.00,000.00,020.8,020.2,000.0,028.8,022.5,009.6,0000.0,0003.47,0001.28,0000.71
2024-05-08 15:29:00,SystemResetWarning,0819.4,5.00,000.00,020.8,020.2,000.0,028.8,022.5,009.4,0000.0,0003.17,0001.34,0000.73
2024-05-08 15:30:00,SystemResetWarning,0819.5,5.00,000.00,020.8,020.2,000.0,028.9,022.5,009.3,0000.0,0002.59,0001.34,0000.74
2024-05-08 15:31:00,SystemResetWarning,0819.5,5.00,000.00,020.8,020.2,000.0,028.9,022.4,009.3,0000.0,0002.55,0001.31,0000.74
2024-05-08 15:32:00,SystemResetWarning,0819.5,5.00,000.00,020.8,020.3,000.0,028.9,022.5,009.7,0000.0,0002.46,0001.29,0000.74
2024-05-08 15:33:00,SystemResetWarning,0819.5,5.00,000.00,020.8,020.3,000.0,028.9,022.5,009.5,0000.0,0002.33,0001.24,0000.74
2024-05-08 15:34:00,SystemResetWarning,0819.5,5.00,000.00,020.8,020.3,000.0,028.9,022.5,009.7,0000.0,0002.34,0001.24,0000.73
2024-05-08 15:35:00,SystemResetWarning,0819.5,5.00,000.00,020.9,020.3,000.0,028.9,022.5,009.7,0000.0,0002.84,0001.26,0000.72
2024-05-08 15:36:00,SystemResetWarning,0819.4,4.99,000.00,020.9,020.3,000.0,028.9,022.5,009.8,0000.0,0002.64,0001.20,0000.72
2024-05-08 15:37:00,SystemResetWarning,0819.5,5.00,000.00,020.9,020.3,000.0,028.9,022.5,009.5,0000.0,0002.67,0001.23,0000.73
2024-05-08 15:38:00,SystemResetWarning,0819.3,4.99,000.00,020.9,020.3,000.0,028.9,022.5,009.6,0000.0,0002.75,0001.26,0000.73
2024-05-08 15:39:00,SystemResetWarning,0819.4,5.00,000.00,020.9,020.3,000.0,028.9,022.5,009.7,0000.0,0002.68,0001.25,0000.72
2024-05-08 15:40:00,SystemResetWarning,0819.4,5.00,000.00,020.9,020.3,000.0,028.9,022.6,009.6,0000.0,0002.51,0001.20,0000.70
2024-05-08 15:41:00,SystemResetWarning,0819.4,5.01,000.00,020.9,020.3,000.0,029.0,022.6,009.3,0000.0,0002.55,0001.20,0000.69
2024-05-08 15:42:00,SystemResetWarning,0819.4,5.01,000.00,020.9,020.3,000.0,029.0,022.6,009.5,0000.0,0002.69,0001.21,0000.69
2024-05-08 15:43:00,SystemResetWarning,0819.4,5.00,000.00,020.9,020.3,000.0,029.0,022.6,009.6,0000.0,0003.24,0001.25,0000.69
2024-05-08 15:44:00,SystemResetWarning,0819.4,5.00,000.00,020.9,020.3,000.0,029.0,022.6,009.8,0000.0,0003.33,0001.29,0000.70
2024-05-08 15:45:00,SystemResetWarning,0819.3,5.00,000.00,020.9,020.3,000.0,029.0,022.6,009.7,0000.0,0003.37,0001.30,0000.70
2024-05-08 15:46:00,SystemResetWarning,0819.3,5.00,000.00,021.0,020.4,000.0,029.0,022.6,009.6,0000.0,0002.95,0001.27,0000.71
2024-05-08 15:47:00,SystemResetWarning,0819.3,4.99,000.00,021.0,020.4,000.0,029.0,022.7,009.5,0000.0,0002.78,0001.24,0000.70
2024-05-08 15:48:00,SystemResetWarning,0819.4,4.99,000.00,021.0,020.4,000.0,029.0,022.6,009.4,0000.0,0002.67,0001.19,0000.71
2024-05-08 15:49:00,SystemResetWarning,0819.4,5.00,000.00,021.0,020.4,000.0,029.0,022.6,009.5,0000.0,0002.99,0001.24,0000.71
2024-05-08 15:50:00,SystemResetWarning,0819.4,5.00,000.00,021.0,020.4,000.0,029.0,022.6,009.6,0000.0,0003.29,0001.29,0000.71
2024-05-08 15:51:00,SystemResetWarning,0819.5,5.00,000.00,021.0,020.4,000.0,029.0,022.6,009.5,0000.0,0003.45,0001.34,0000.71
2024-05-08 15:52:00,SystemResetWarning,0819.5,5.01,000.00,021.0,020.4,000.0,029.0,022.6,009.7,0000.0,0003.89,0001.38,0000.72
2024-05-08 15:53:00,SystemResetWarning,0819.5,5.00,000.00,021.0,020.4,000.0,029.0,022.6,009.8,0000.0,0004.66,0001.42,0000.72
2024-05-08 15:54:00,SystemResetWarning,0819.5,5.00,000.00,021.0,020.4,000.0,029.0,022.6,009.7,0000.0,0004.16,0001.40,0000.72
2024-05-08 15:55:00,SystemResetWarning,0819.5,5.00,000.00,021.0,020.4,000.0,029.0,022.6,009.8,0000.0,0005.01,0001.42,0000.72
2024-05-08 15:56:00,SystemResetWarning,0819.5,4.99,000.00,021.0,020.4,000.0,029.1,022.6,009.4,0000.0,0005.30,0001.44,0000.72
2024-05-08 15:57:00,SystemResetWarning,0819.5,5.00,000.00,021.0,020.4,000.0,029.1,022.7,009.1,0000.0,0005.30,0001.45,0000.71
2024-05-08 15:58:00,SystemResetWarning,0819.4,5.00,000.00,021.0,020.4,000.0,029.1,022.6,009.3,0000.0,0005.40,0001.47,0000.71
2024-05-08 15:59:00,SystemResetWarning,0819.5,5.00,000.00,021.0,020.4,000.0,029.1,022.7,009.5,0000.0,0005.55,0001.53,0000.70
